Home   Weather   Helsinki   Past weeks

Flag for Finland Past Weather in Helsinki, Finland — Yesterday and Last 2 Weeks

Now
32 °F

Snow flurries. Overcast.


Feels Like: 26 °F
Forecast: 20 / 31 °F
Wind: 7 mph from Northwest

Location: Helsinki Malmi Airport

Current Time: Jan 24, 2017 at 3:18:07 am

Latest Report: Jan 24, 2017 at 2:20 am


Visibility: N/A

Pressure: 29.74 "Hg

Humidity: 93%

Dew Point: 30 °F

Location of HelsinkiLocation

Past Weather in Helsinki — Graph

°F

Helsinki Temperature Yesterday

Maximum temperature yesterday: 34 °F (at 12:50 pm)
Minimum temperature yesterday: 30 °F (at 12:20 am)
Average temperature yesterday: 32 °F

High & Low Weather Summary for the Past Weeks

 TemperatureHumidityPressure
High39 °F (Jan 19, 8:50 pm)100% (Jan 9, 5:20 pm)30.45 "Hg (Jan 9, 5:20 pm)
Low19 °F (Jan 16, 12:20 am)55% (Jan 12, 12:20 am)29.03 "Hg (Jan 13, 4:50 am)
Average31 °F88%29.85 "Hg
* Reported Jan 9 1:20 am — Jan 24 1:50 am, Helsinki, Weather by CustomWeather, © 2017

Note: Actual official high and low records may vary slightly from our data, if they occured in-between our weather recording intervals... More about our weather records

Advertising

Helsinki Weather History for the Previous 24 Hours

Scroll right to see more
 ConditionsComfort  
Time TempWeatherWind HumidityBarometerVisibility
1:50 am
Tue, Jan 24
34 °FChilly.7 mph87%29.74 "HgN/A
1:20 am34 °FChilly.7 mph87%29.74 "HgN/A
12:50 am34 °FChilly.7 mph87%29.71 "HgN/A
12:20 am34 °FChilly.8 mph87%29.71 "HgN/A
11:50 pm
Mon, Jan 23
32 °FChilly.7 mph93%29.71 "HgN/A
11:20 pm32 °FChilly.6 mph93%29.71 "HgN/A
10:50 pm32 °FClear.7 mph93%29.68 "Hg10 mi
10:20 pm32 °FPassing clouds.6 mph93%29.68 "HgN/A
9:50 pm32 °FPassing clouds.7 mph93%29.68 "HgN/A
9:20 pm34 °FPassing clouds.7 mph87%29.68 "HgN/A
8:50 pm34 °FPartly cloudy.9 mph87%29.68 "HgN/A
8:20 pm34 °FOvercast.8 mph87%29.68 "HgN/A
7:50 pm34 °FOvercast.7 mph87%29.68 "HgN/A
7:20 pm34 °FOvercast.7 mph87%29.68 "HgN/A
6:50 pm34 °FOvercast.10 mph87%29.68 "HgN/A
6:20 pm34 °FLow clouds.10 mph93%29.68 "HgN/A
5:50 pm34 °FPassing clouds.10 mph93%29.68 "HgN/A
5:20 pm34 °FPassing clouds.10 mph93%29.68 "HgN/A
4:50 pm34 °FPassing clouds.12 mph87%29.68 "HgN/A
4:20 pm34 °FPassing clouds.10 mph87%29.68 "HgN/A
3:50 pm34 °FPartly sunny.10 mph93%29.68 "HgN/A
3:20 pm34 °FPartly sunny.8 mph93%29.71 "HgN/A
2:50 pm34 °FPartly sunny.9 mph87%29.71 "HgN/A
2:20 pm34 °FPartly sunny.7 mph87%29.71 "HgN/A
1:50 pm34 °FPartly sunny.8 mph87%29.74 "HgN/A
1:20 pm34 °FPartly sunny.10 mph87%29.74 "HgN/A
12:50 pm34 °FPartly sunny.9 mph81%29.74 "HgN/A
12:20 pm32 °FPartly sunny.7 mph93%29.74 "HgN/A
11:50 am32 °FLight snow. Partly sunny.10 mph93%29.77 "Hg2 mi
11:20 am32 °FPartly sunny.10 mph93%29.77 "HgN/A
10:50 am32 °FPartly sunny.8 mph87%29.77 "HgN/A
10:20 am32 °FPartly sunny.5 mph87%29.77 "HgN/A
9:50 am32 °FPartly sunny.7 mph87%29.77 "HgN/A
9:20 am32 °FLight snow. Broken clouds.12 mph87%29.80 "Hg4 mi
8:50 am32 °FPassing clouds.5 mph93%29.80 "HgN/A
8:20 am32 °FLight snow. Passing clouds.7 mph93%29.80 "Hg2 mi
7:50 am32 °FPassing clouds.9 mph93%29.83 "Hg4 mi
7:20 am32 °FLow clouds.10 mph93%29.83 "Hg4 mi
6:50 am30 °FIce fog.6 mph100%29.83 "Hg2 mi
6:20 am30 °FIce fog.12 mph100%29.83 "Hg2 mi
5:50 am32 °FIce fog.7 mph93%29.86 "Hg1 mi
5:20 am30 °FIce fog.8 mph100%29.86 "Hg1 mi
4:50 am30 °FIce fog.10 mph100%29.89 "Hg1 mi
4:20 am32 °FIce fog.7 mph100%29.89 "Hg1 mi
3:50 am32 °FIce fog.7 mph100%29.89 "Hg2 mi
3:20 am32 °FLow clouds.6 mph100%29.92 "Hg3 mi
Weather by CustomWeather, © 2017

See weather overviewHow to use our weather pages